Location: Newark
(45.8667°N, 9.7333°E)
Time: 02:22:22
(UTC+00:00)

Vanguard 2 Rocket - Pass Details

Date: 30 January 2020
Orbit: 553 x 3327 km, 32.9° (Epoch: 26 February)

Event Time Altitude Azimuth Distance (km) Brightness Sun altitude
Rises 07:04:34 0° 250° (WSW) 3,093 9.2 2.0°
Reaches altitude 10° 07:07:33 10° 227° (SW) 2,442 8.9 2.5°
Maximum altitude 07:10:58 16° 190° (S) 2,384 9.4 3.0°
Drops below altitude 10° 07:15:21 10° 156° (SSE) 3,296 10.8 3.7°
Sets 07:20:31 0° 138° (SE) 4,876 12.4 4.4°
